Regional Weather Roundup
Issued by NWS Newport/Morehead, NC

Current Version | Previous Version | Text Only | Print | Product List | Glossary On
Versions: 1 2 3 4 5 6 7 8 9 10 11 12 13 14 15 16 17 18 19 20 21 22 23 24 25 26 27 28 29 30 31 32 33 34 35 36 37 38 39 40 41 42 43 44 45 46 47 48 49 50
000
ASUS42 KMHX 040812
RWRMHX
WEATHER ROUNDUP FOR EASTERN NORTH CAROLINA
NATIONAL WEATHER SERVICE NEWPORT/MOREHEAD CITY NC
300 AM EST WED MAR 04 2015

NOTE: "FAIR" INDICATES FEW OR NO CLOUDS BELOW 12,000 FEET
WITH NO SIGNIFICANT WEATHER AND/OR OBSTRUCTIONS TO VISIBILITY

NCZ015>017-031-032-045>047-102-103-040900-
NORTH COAST

CITY           SKY/WX    TMP DP  RH WIND       PRES   REMARKS
EDENTON        FOG       45  45  99 SW7       30.02F VSB 1/2
ELIZABETH CITY FOG       47  46  97 SW10      29.99F VSB 1/2
KITTY HAWK     CLOUDY    60  60 100 SW12G21   29.99S FOG
MANTEO         FOG       55  55 100 SW16      30.00F VSB 3/4

$$

NCZ045>047-081-094-103-104-040900-
CENTRAL COAST

CITY           SKY/WX    TMP DP  RH WIND       PRES   REMARKS
FRISCO         FOG       54  54 100 SW10      30.04F VSB 1/2
SWANQUARTER      N/A     54 N/A N/A SW16      29.97F

$$

NCZ095-097-098-100-101-040900-
SOUTHERN COAST

CITY           SKY/WX    TMP DP  RH WIND       PRES   REMARKS
BEAUFORT       FOG       52  52 100 SW13      30.07F VSB 1/4
CEDAR ISLAND     N/A     63 N/A N/A SW13      30.09S
JACKSONVILLE   FOG       56  55  97 SW9       30.06F VSB 1/8
PINEY ISLAND     N/A    N/A N/A N/A MISG      30.04F
WILMINGTON     FOG       48  47  96 CALM      30.08F VSB 1/4


$$

NCZ011>013-027>030-043-044-078>080-089-090>093-098-040900-
COASTAL PLAIN

CITY           SKY/WX    TMP DP  RH WIND       PRES   REMARKS
AHOSKIE        FOG       40  39  99 SW3       30.01F VSB 1/2
CLINTON        FOG       40  40 100 CALM      30.06F VSB 1/2
ELIZABETHTOWN  FOG       42  42 100 S3        30.07F VSB 1/4
GOLDSBORO      CLOUDY    41  41 100 VRB3      30.02F FOG
GREENVILLE     FOG       43  41  93 SW8       30.06F VSB 1
HAVELOCK       CLOUDY    62  61  96 SW14G20   30.06F FOG
KENANSVILLE    FOG       43  43 100 SW3       30.07F VSB 1/2
KINSTON        FOG       43  43 100 W5        30.06F VSB 1/2
NEW BERN       CLOUDY    58  56  93 SW12      30.05F FOG
RICHLANDS      CLOUDY    48  46  93 SW10      30.07F VSB 1/2
ROCKY MOUNT    FOG       41  40  96 S8        30.01F VSB 1/2
WASHINGTON     FOG       45  45  99 W5        30.03F VSB 1/4
WHITEVILLE     FOG       45  44  97 S3        30.07F VSB 1/4

$$

AMZ130-135-150-152-154-156-158-170-250-252-270-ANZ085-086-088-633-658-670-040900-
MARINE OBSERVATIONS

STATION/POSITION TIME  TEMP    WIND        PRES    WAVE   SWELL
                       AIR SEA DIR/SP/G            HT/PER HT/PER
                 (UTC) (F)     (DEG/KT/KT) (MB)    (FT/S) (FT/S)
CHESAPEAKE LIGHT 0700   44     220/ 26/ 27 1014.6
64 E VA BEACH    0750   57 56  220/ 21/ 25 1014.1    6/ 6   2/ 9
DUCK             0700   47 35  230/ 11/ 13 1015.5
2 E DUCK         0711      35                N/A     4/ 6
10 NE DUCK       NOT AVBL
OREGON INLET     0700   49 42  210/ 14/ 16 1016.9
HATTERAS CG      0700   55 43  220/  8/ 13 1018.0
CAPE LOOKOUT     0800   59     230/ 10/ 13 1018.0
BEAUFORT LAB     0700   53 44  240/  3/  8 1017.6
27 SE WRIGHTSVLE NOT AVBL
5 SE WRIGHTSVLE  NOT AVBL
225 S CAPE HAT   0750   70 72  200/ 17/ 21 1022.3    6/ 9   3/ 9
41 SE CHARLESTON 0750   70 68  190/ 14/ 16 1018.4    4/ 8   3/ 8

$$



USA.gov is the U.S. government's official web portal to all federal, state and local government web resources and services.